PulseSat

PulseSat

MOLNIYA 1-91

Last updated on April 20, 2019, 3:02 a.m. UTC

1 25485U 98054A   19108.07894927  .00014838 -80333-6  33197-3 0  9999
2 25485  62.5168 357.5988 7266947 283.4575  11.0936  2.34444384151041
UTC
Height (km)
Latitude
Longitude
Inclination
Orbital Period

Next 30 passes for location: Hong Kong

Rise time Rise Azimuth (degrees) Set time Set Azimuth (degrees) Duration Max altitude (degrees)

No matching passes for this satellites

PulseSat

PulseSat is the new satellites software and hardware trackering solution by Pulsely.
Satellite Two Line Element Set source: US Air Force Space Command

Download PulseSat for iOS
© 2017 Pulsely Limited